User: anonymous   Login
Location: Breitenfeld
(46.8500°N, 15.6333°E)
Time: 10:46:20
(UTC+00:00)
Language:

Aureole 1 Rocket - Orbit

View from above orbital plane
View from above orbital plane
View from above satellite
View from above satellite

Ground track
Ground track

The orbit data is extracted from the following two-line orbital elements,

1  5730U 71119B   20185.12382350 -.00000180  00000-0 -75778-5 0  9994
2  5730  73.8936 328.2847 0690355 350.5097   8.3515 14.04242045361642
Epoch (UTC): 03 July 2020 02:58:18
Eccentricity: 0.0690355
inclination: 73.8936°
perigee height: 378 km
apogee height: 1380 km
right ascension of ascending node: 328.2847°
argument of perigee: 350.5097°
revolutions per day: 14.04242045
mean anomaly at epoch: 8.3515°
orbit number at epoch: 36164

The dashed part of the orbit path shows where the satellite is in the earth's shadow,  

DLR